FW0954 Weather Reports


time (UTC)temp
C
wind
direction
speed
KPH
gust
KPH
rain 1hr
cm
rain 24hr
cm
rain mn
cm
humidity
%
barometer
mb
20260901161502 34 131 1.6 4.8 0.00 0.00 0.00 62 1017.4
20260901161002 34 140 0.0 3.2 0.00 0.00 0.00 61 1017.5
20260901160502 34 121 0.0 6.4 0.00 0.00 0.00 62 1017.4
20260901160003 33 126 1.6 6.4 0.00 0.00 0.00 63 1017.4
20260901155502 33 136 1.6 6.4 0.00 0.00 0.00 63 1017.3
20260901155003 34 138 1.6 6.4 0.00 0.00 0.00 63 1017.3
20260901154003 33 281 1.6 3.2 0.00 0.00 0.00 62 1017.4
20260901153503 33 270 1.6 6.4 0.00 0.00 0.00 63 1017.4
20260901153003 33 251 0.0 6.4 0.00 0.00 0.00 61 1017.4
20260901152502 33 239 0.0 8.0 0.00 0.00 0.00 62 1017.3
20260901152003 33 241 0.0 8.0 0.00 0.00 0.00 63 1017.3
20260901151503 33 159 0.0 4.8 0.00 0.00 0.00 65 1017.3
20260901151002 32 297 1.6 4.8 0.00 0.00 0.00 64 1017.5
20260901150502 32 310 0.0 4.8 0.00 0.00 0.00 67 1017.4
20260901150002 32 179 0.0 1.6 0.00 0.00 0.00 65 1017.4
20260901145002 32 200 0.0 3.2 0.00 0.00 0.00 68 1017.5
20260901144502 32 190 0.0 3.2 0.00 0.00 0.00 68 1017.6
20260901144002 31 136 0.0 3.2 0.00 0.00 0.00 69 1017.6
20260901143503 31 108 0.0 3.2 0.00 0.00 0.00 70 1017.7
20260901143002 31 152 0.0 3.2 0.00 0.00 0.00 70 1017.7
20260901142502 31 168 1.6 6.4 0.00 0.00 0.00 70 1017.8
20260901142003 31 177 1.6 6.4 0.00 0.00 0.00 70 1017.7
20260901141502 31 184 0.0 3.2 0.00 0.00 0.00 70 1017.6
20260901141003 30 168 0.0 1.6 0.00 0.00 0.00 71 1017.6
20260901140503 30 174 0.0 1.6 0.00 0.00 0.00 73 1017.5
20260901140003 30 175 0.0 1.6 0.00 0.00 0.00 73 1017.5
20260901135502 28 181 0.0 1.6 0.00 0.00 0.00 75 1017.7
20260901135002 28 181 0.0 1.6 0.00 0.00 0.00 76 1017.6
20260901134503 28 0 0.0 0.0 0.00 0.00 0.00 77 1017.7
20260901133503 27 0 0.0 0.0 0.00 0.00 0.00 79 1017.7
20260901133003 26 0 0.0 0.0 0.00 0.00 0.00 80 1017.6
20260901132502 26 0 0.0 0.0 0.00 0.00 0.00 80 1017.6
20260901132003 26 0 0.0 0.0 0.00 0.00 0.00 80 1017.5
20260901131502 26 0 0.0 0.0 0.00 0.00 0.00 81 1017.5
20260901131003 26 0 0.0 0.0 0.00 0.00 0.00 81 1017.5
20260901130503 26 0 0.0 0.0 0.00 0.00 0.00 81 1017.4
20260901130003 26 0 0.0 0.0 0.00 0.00 0.00 82 1017.4
20260901125503 25 0 0.0 0.0 0.00 0.00 0.00 82 1017.3
20260901125002 25 0 0.0 0.0 0.00 0.00 0.00 82 1017.3
20260901124503 25 139 0.0 1.6 0.00 0.00 0.00 83 1017.1
20260901124002 25 152 0.0 3.2 0.00 0.00 0.00 83 1017.1
20260901123502 25 155 0.0 3.2 0.00 0.00 0.00 83 1017.1
20260901123003 25 163 0.0 1.6 0.00 0.00 0.00 83 1017.0
20260901122503 25 0 0.0 0.0 0.00 0.00 0.00 82 1016.9
20260901122003 25 0 0.0 0.0 0.00 0.00 0.00 82 1016.9
20260901121503 25 0 0.0 0.0 0.00 0.00 0.00 82 1016.8
20260901121003 25 0 0.0 0.0 0.00 0.00 0.00 82 1016.8
20260901120003 25 0 0.0 0.0 0.00 0.00 0.00 81 1016.5
20260901115502 25 0 0.0 0.0 0.00 0.00 0.00 81 1016.5
20260901115003 25 0 0.0 0.0 0.00 0.00 0.00 80 1016.4
20260901114503 25 0 0.0 0.0 0.00 0.00 0.00 80 1016.4
20260901114003 25 0 0.0 0.0 0.00 0.00 0.00 80 1016.3
20260901113503 25 0 0.0 0.0 0.00 0.00 0.00 79 1016.3
20260901113003 25 0 0.0 0.0 0.00 0.00 0.00 80 1016.3
20260901112503 26 154 0.0 1.6 0.00 0.00 0.00 79 1016.3
20260901112003 26 154 0.0 1.6 0.00 0.00 0.00 79 1016.3
20260901111502 26 173 0.0 1.6 0.00 0.00 0.00 79 1016.3
20260901110503 26 173 0.0 1.6 0.00 0.00 0.00 78 1016.2
20260901110003 26 0 0.0 0.0 0.00 0.00 0.00 78 1016.2
20260901105503 26 0 0.0 0.0 0.00 0.00 0.00 78 1016.2
20260901105003 26 0 0.0 0.0 0.00 0.00 0.00 78 1016.2
20260901104503 26 0 0.0 0.0 0.00 0.00 0.00 77 1016.2
20260901103503 26 0 0.0 0.0 0.00 0.00 0.00 77 1016.2
20260901103002 26 173 0.0 1.6 0.00 0.00 0.00 76 1016.2
20260901102503 26 173 0.0 1.6 0.00 0.00 0.00 76 1016.2
20260901102003 26 0 0.0 0.0 0.00 0.00 0.00 76 1016.2
20260901101003 26 173 0.0 1.6 0.00 0.00 0.00 76 1016.3
20260901100503 26 173 0.0 1.6 0.00 0.00 0.00 75 1016.2
20260901100003 26 173 0.0 1.6 0.00 0.00 0.00 75 1016.3
20260901095503 26 173 0.0 1.6 0.00 0.00 0.00 75 1016.3
20260901095003 26 173 0.0 1.6 0.00 0.00 0.00 75 1016.2
20260901094503 26 0 0.0 0.0 0.00 0.00 0.00 74 1016.4
20260901094003 26 0 0.0 0.0 0.00 0.00 0.00 74 1016.4
20260901093504 26 173 0.0 1.6 0.00 0.00 0.00 74 1016.4
20260901093004 26 173 0.0 1.6 0.00 0.00 0.00 74 1016.4
20260901092003 26 173 0.0 1.6 0.00 0.00 0.00 73 1016.3
20260901091004 27 0 0.0 0.0 0.00 0.00 0.00 72 1016.3
20260901090503 27 159 0.0 3.2 0.00 0.00 0.00 72 1016.2
20260901090004 27 155 0.0 3.2 0.00 0.00 0.00 71 1016.2
20260901085503 27 170 0.0 1.6 0.00 0.00 0.00 71 1016.1
20260901085003 27 184 0.0 1.6 0.00 0.00 0.00 71 1016.1
20260901084503 27 192 0.0 3.2 0.00 0.00 0.00 71 1016.1
20260901084004 27 183 0.0 3.2 0.00 0.00 0.00 70 1016.1
20260901083503 27 139 0.0 1.6 0.00 0.00 0.00 70 1016.0
20260901083003 27 145 0.0 1.6 0.00 0.00 0.00 70 1016.0
20260901082503 27 161 0.0 3.2 0.00 0.00 0.00 69 1016.0
20260901081503 27 0 0.0 0.0 0.00 0.00 0.00 69 1016.0
20260901081003 27 165 0.0 1.6 0.00 0.00 0.00 68 1016.0
20260901080004 28 193 0.0 4.8 0.00 0.00 0.00 67 1015.9
20260901075003 28 181 0.0 3.2 0.00 0.00 0.00 67 1015.9
20260901074503 28 175 0.0 4.8 0.00 0.00 0.00 67 1015.9
20260901074004 28 176 0.0 4.8 0.00 0.00 0.00 67 1015.9
20260901073503 28 178 0.0 3.2 0.00 0.00 0.00 67 1015.9
20260901073004 28 178 0.0 3.2 0.00 0.00 0.00 67 1016.1
20260901072503 28 176 0.0 3.2 0.00 0.00 0.00 67 1016.0
20260901072003 28 167 0.0 3.2 0.00 0.00 0.00 67 1015.9
20260901071504 28 168 0.0 3.2 0.00 0.00 0.00 67 1015.9
20260901071003 28 173 0.0 4.8 0.00 0.00 0.00 66 1015.9
20260901070503 28 167 0.0 4.8 0.00 0.00 0.00 66 1015.9
20260901065503 28 156 0.0 1.6 0.00 0.00 0.00 66 1015.9
20260901065003 28 154 0.0 3.2 0.00 0.00 0.00 66 1015.9
20260901063503 28 159 0.0 3.2 0.00 0.00 0.00 65 1015.8
20260901063003 29 155 0.0 3.2 0.00 0.00 0.00 65 1015.8
20260901062504 29 151 0.0 3.2 0.00 0.00 0.00 65 1015.8
20260901062004 29 158 0.0 3.2 0.00 0.00 0.00 64 1015.7
20260901061503 29 158 0.0 4.8 0.00 0.00 0.00 64 1015.7
20260901061004 29 159 0.0 4.8 0.00 0.00 0.00 65 1015.6
20260901060503 29 152 0.0 1.6 0.00 0.00 0.00 65 1015.6
20260901060003 29 137 0.0 1.6 0.00 0.00 0.00 65 1015.5
20260901055003 30 147 0.0 4.8 0.00 0.00 0.00 64 1015.4
20260901054504 29 155 0.0 4.8 0.00 0.00 0.00 64 1015.4
20260901053504 30 175 0.0 4.8 0.00 0.00 0.00 65 1015.4
20260901053003 30 148 0.0 4.8 0.00 0.00 0.00 66 1015.2
20260901052503 30 148 0.0 4.8 0.00 0.00 0.00 66 1015.3
20260901052001 30 169 0.0 3.2 0.00 0.00 0.00 65 1015.3
20260901051501 30 153 0.0 3.2 0.00 0.00 0.00 64 1015.3
20260901050501 30 136 0.0 3.2 0.00 0.00 0.00 63 1015.0
20260901050002 29 149 0.0 3.2 0.00 0.00 0.00 63 1015.1
20260901045501 29 146 0.0 3.2 0.00 0.00 0.00 63 1015.0
20260901044501 29 97 0.0 1.6 0.00 0.00 0.00 64 1014.9
20260901044001 29 97 0.0 1.6 0.00 0.00 0.00 64 1014.9
20260901043001 29 0 0.0 0.0 0.00 0.00 0.00 64 1014.9
20260901042501 29 0 0.0 0.0 0.00 0.00 0.00 64 1014.9
20260901042001 29 0 0.0 0.0 0.00 0.00 0.00 65 1014.8
20260901041502 29 124 0.0 3.2 0.00 0.00 0.00 65 1014.9
20260901041002 29 125 0.0 3.2 0.00 0.00 0.00 65 1015.0
20260901040502 29 142 0.0 1.6 0.00 0.00 0.00 66 1015.0
20260901040001 29 0 0.0 0.0 0.00 0.00 0.00 60 1014.8
20260901035501 30 0 0.0 0.0 0.00 0.00 0.00 58 1014.7
20260901035001 30 0 0.0 0.0 0.00 0.00 0.00 58 1014.8
20260901034501 30 0 0.0 0.0 0.00 0.00 0.00 57 1014.8
20260901033501 30 0 0.0 0.0 0.00 0.00 0.00 56 1014.7
20260901033001 30 0 0.0 0.0 0.00 0.00 0.00 56 1014.8
20260901032001 30 0 0.0 0.0 0.00 0.00 0.00 55 1014.8
20260901031501 30 0 0.0 0.0 0.00 0.00 0.00 55 1014.7
20260901031001 30 0 0.0 0.0 0.00 0.00 0.00 55 1014.7
20260901030501 31 0 0.0 0.0 0.00 0.00 0.00 55 1014.6
20260901030001 31 0 0.0 0.0 0.00 0.00 0.00 54 1014.6
20260901025002 31 0 0.0 0.0 0.00 0.00 0.00 54 1014.4
20260901024001 31 0 0.0 0.0 0.00 0.00 0.00 53 1014.2
20260901023002 31 166 0.0 1.6 0.00 0.00 0.00 53 1014.1
20260901022501 31 166 0.0 1.6 0.00 0.00 0.00 52 1014.0
20260901022002 31 0 0.0 0.0 0.00 0.00 0.00 52 1013.9
20260901021502 31 0 0.0 0.0 0.00 0.00 0.00 51 1014.0
20260901021002 31 0 0.0 0.0 0.00 0.00 0.00 51 1013.9
20260901020002 32 0 0.0 0.0 0.00 0.00 0.00 50 1013.8
20260901015002 32 0 0.0 0.0 0.00 0.00 0.00 50 1013.7
20260901014501 32 0 0.0 0.0 0.00 0.00 0.00 49 1013.8
20260901014002 32 0 0.0 0.0 0.00 0.00 0.00 49 1013.8
20260901013501 32 0 0.0 0.0 0.00 0.00 0.00 48 1013.7
20260901013002 33 0 0.0 0.0 0.00 0.00 0.00 48 1013.7
20260901012002 33 0 0.0 0.0 0.00 0.00 0.00 47 1013.8
20260901011501 33 161 0.0 1.6 0.00 0.00 0.00 46 1013.7
20260901011002 33 161 0.0 1.6 0.00 0.00 0.00 46 1013.6
20260901010501 34 166 0.0 3.2 0.00 0.00 0.00 46 1013.6
20260901010002 34 167 0.0 3.2 0.00 0.00 0.00 45 1013.6
20260901005501 34 147 0.0 1.6 0.00 0.00 0.00 45 1013.6
20260901005002 35 154 0.0 1.6 0.00 0.00 0.00 44 1013.6
20260901004502 35 148 0.0 4.8 0.00 0.00 0.00 44 1013.6
20260901004001 35 144 0.0 4.8 0.00 0.00 0.00 44 1013.6
20260901003501 35 172 0.0 4.8 0.00 0.00 0.00 44 1013.5
20260901003002 36 170 1.6 6.4 0.00 0.00 0.00 43 1013.5
20260901002501 36 156 1.6 6.4 0.00 0.00 0.00 43 1013.5
20260901002002 36 146 0.0 4.8 0.00 0.00 0.00 43 1013.6
20260901001502 37 159 0.0 4.8 0.00 0.00 0.00 44 1013.5
20260901001001 37 147 0.0 3.2 0.00 0.00 0.00 43 1013.5
20260901000502 37 145 1.6 8.0 0.00 0.00 0.00 43 1013.6
20260901000002 37 156 1.6 9.7 0.00 0.00 0.00 41 1013.6
20260831235501 38 162 1.6 9.7 0.00 0.00 0.00 40 1013.6
20260831235002 38 161 1.6 6.4 0.00 0.00 0.00 38 1013.5
20260831234501 38 172 1.6 8.0 0.00 0.00 0.00 38 1013.6
20260831234002 38 176 3.2 8.0 0.00 0.00 0.00 39 1013.6
20260831233002 38 157 1.6 6.4 0.00 0.00 0.00 38 1013.5
20260831232502 38 176 1.6 4.8 0.00 0.00 0.00 38 1013.5
20260831231502 38 161 0.0 6.4 0.00 0.00 0.00 37 1013.5
20260831231002 38 167 1.6 6.4 0.00 0.00 0.00 37 1013.5
20260831230502 38 135 1.6 6.4 0.00 0.00 0.00 37 1013.5
20260831230001 38 143 1.6 9.7 0.00 0.00 0.00 38 1013.6
20260831225501 38 152 3.2 9.7 0.00 0.00 0.00 38 1013.6
20260831225002 39 151 3.2 8.0 0.00 0.00 0.00 38 1013.6
20260831224002 39 184 3.2 9.7 0.00 0.00 0.00 36 1013.7
20260831223501 39 202 3.2 9.7 0.00 0.00 0.00 35 1013.7
20260831223002 39 208 3.2 12.9 0.00 0.00 0.00 35 1013.7
20260831222502 39 198 3.2 12.9 0.00 0.00 0.00 34 1013.9
20260831222001 40 187 1.6 8.0 0.00 0.00 0.00 34 1013.9
20260831221502 40 184 3.2 12.9 0.00 0.00 0.00 36 1013.8
20260831221002 39 181 3.2 12.9 0.00 0.00 0.00 35 1013.9
20260831220502 39 179 3.2 8.0 0.00 0.00 0.00 35 1013.8
20260831215502 39 190 1.6 9.7 0.00 0.00 0.00 36 1013.9
20260831215002 39 191 4.8 16.1 0.00 0.00 0.00 36 1014.0
20260831214501 38 189 4.8 16.1 0.00 0.00 0.00 36 1014.1
20260831214002 38 195 3.2 16.1 0.00 0.00 0.00 36 1014.1
20260831212502 39 177 1.6 11.3 0.00 0.00 0.00 36 1014.2
20260831212002 39 188 3.2 12.9 0.00 0.00 0.00 36 1014.3
20260831211001 39 173 4.8 11.3 0.00 0.00 0.00 36 1014.3
20260831210502 39 178 4.8 11.3 0.00 0.00 0.00 36 1014.4
20260831210002 39 188 4.8 9.7 0.00 0.00 0.00 36 1014.4
20260831205002 39 166 1.6 11.3 0.00 0.00 0.00 37 1014.6
20260831204502 39 191 3.2 14.5 0.00 0.00 0.00 38 1014.6
20260831204002 39 171 3.2 14.5 0.00 0.00 0.00 38 1014.8
20260831203501 39 94 1.6 8.0 0.00 0.00 0.00 39 1014.8
20260831203002 38 77 1.6 9.7 0.00 0.00 0.00 40 1014.8
20260831202503 38 95 3.2 11.3 0.00 0.00 0.00 42 1015.0
20260831202002 38 104 3.2 11.3 0.00 0.00 0.00 41 1015.1
20260831201502 38 92 1.6 9.7 0.00 0.00 0.00 40 1015.1
20260831201002 39 98 1.6 6.4 0.00 0.00 0.00 40 1015.2
20260831200502 39 158 1.6 12.9 0.00 0.00 0.00 37 1015.2
20260831200002 39 155 3.2 12.9 0.00 0.00 0.00 39 1015.4
20260831195502 38 145 3.2 9.7 0.00 0.00 0.00 40 1015.4
20260831195002 38 165 3.2 11.3 0.00 0.00 0.00 40 1015.5
20260831194502 38 167 1.6 11.3 0.00 0.00 0.00 40 1015.5
20260831194002 38 156 1.6 6.4 0.00 0.00 0.00 40 1015.6
20260831193502 38 139 3.2 8.0 0.00 0.00 0.00 41 1015.7
20260831193003 37 123 1.6 8.0 0.00 0.00 0.00 43 1015.8
20260831192002 36 102 0.0 4.8 0.00 0.00 0.00 44 1015.9
20260831191503 36 98 0.0 4.8 0.00 0.00 0.00 45 1015.9
20260831191002 37 126 0.0 8.0 0.00 0.00 0.00 45 1016.0
20260831190503 37 169 1.6 11.3 0.00 0.00 0.00 44 1016.1
20260831190003 38 176 3.2 11.3 0.00 0.00 0.00 42 1016.0
20260831185502 38 182 4.8 14.5 0.00 0.00 0.00 42 1016.1
20260831185002 38 173 4.8 14.5 0.00 0.00 0.00 43 1016.2
20260831183503 38 138 1.6 8.0 0.00 0.00 0.00 42 1016.2
20260831182502 38 135 1.6 6.4 0.00 0.00 0.00 46 1016.4
20260831181002 37 161 1.6 11.3 0.00 0.00 0.00 44 1016.6
20260831180502 37 168 1.6 8.0 0.00 0.00 0.00 46 1016.7
20260831180002 37 170 3.2 11.3 0.00 0.00 0.00 45 1016.7
20260831175502 37 168 3.2 11.3 0.00 0.00 0.00 45 1016.8
20260831175002 37 185 3.2 14.5 0.00 0.00 0.00 45 1016.8
20260831174503 37 204 0.0 14.5 0.00 0.00 0.00 46 1016.9
20260831174002 37 182 1.6 8.0 0.00 0.00 0.00 47 1017.0
20260831173002 36 181 3.2 11.3 0.00 0.00 0.00 48 1017.1
20260831172502 36 198 3.2 11.3 0.00 0.00 0.00 48 1017.1
20260831172002 36 193 3.2 12.9 0.00 0.00 0.00 49 1017.2
20260831171503 36 182 3.2 12.9 0.00 0.00 0.00 49 1017.3
20260831171002 36 188 3.2 11.3 0.00 0.00 0.00 49 1017.4
20260831170503 36 195 3.2 11.3 0.00 0.00 0.00 49 1017.4
20260831170002 36 183 3.2 11.3 0.00 0.00 0.00 49 1017.3
20260831165503 35 188 4.8 11.3 0.00 0.00 0.00 50 1017.5
20260831165002 35 183 4.8 11.3 0.00 0.00 0.00 50 1017.5
20260831164502 35 175 4.8 14.5 0.00 0.00 0.00 50 1017.5
20260831163502 35 196 3.2 8.0 0.00 0.00 0.00 51 1017.5
20260831163003 35 168 3.2 8.0 0.00 0.00 0.00 52 1017.5
20260831162502 35 176 4.8 12.9 0.00 0.00 0.00 52 1017.5
20260831162002 34 182 4.8 12.9 0.00 0.00 0.00 52 1017.7